[[{"header":{"parameterUnit":"m.s-1","parameterCategory":1,"la1":30.2991,"la2":30.254,"lo1":-89.0895,"lo2":-89.0444,"dy":0.0017,"dx":0.0017,"nx":28,"ny":28,"refTime":"2024-03-13T09:00:00:Z","depth":0,"parameterNumber":2,"parameterNumberName":"U-component_of_WINDS"},"data":[0,0,0,0,0,0,0,0,0,0,0,0,0,0,0,0,0,0,0,0,0,0,0,0,0,0,0,0,0,0,0,0,0,0,0,0,0,0,0,0,0,0,0,0,0,0,0,0,0,0,0,0,0,0,0,0,0,0,-4.0297,-4.0298,0,-4.0346,-4.0346,-4.0347,-4.0309,-4.0307,-4.0306,-4.0304,-4.0352,-4.0354,-4.0357,0,0,0,0,0,0,0,0,0,0,0,0,0,-4.0171,-4.0173,-4.0297,-4.0298,-4.0299,-4.0346,-4.0347,-4.0347,-4.0309,-4.0307,-4.0305,-4.0304,-4.0351,-4.0354,-4.0357,0,0,0,0,0,0,0,0,0,0,0,0,0,-4.0223,-4.0174,-4.0297,-4.0285,-4.0285,-4.0346,-4.0347,-4.0347,-4.031,-4.0307,-4.0305,-4.0303,-4.035,-4.0354,-4.0358,-4.0432,0,0,-4.0371,-4.0372,0,0,0,0,0,0,0,0,-4.022,-4.0228,-4.0287,-4.0286,-4.0286,-4.0319,-4.0319,-4.0376,-4.031,-4.03,-4.0304,-4.0301,-4.0343,-4.0347,-4.0362,-4.0434,-4.0436,-4.0371,-4.0373,-4.0375,-4.0376,0,0,0,0,0,0,0,-4.0217,-4.0226,-4.0316,-4.0287,-4.0287,-4.0277,-4.0282,-4.033,-4.0334,-4.0301,-4.0298,-4.0305,-4.0342,-4.0358,-4.0362,-4.0437,-4.0371,-4.0375,-4.0377,-4.0379,-4.0574,-4.0577,0,0,0,0,0,0,-4.0214,-4.0223,-4.0315,-4.0318,-4.0247,-4.0282,-4.0287,-4.0311,-4.0334,-4.0335,-4.0307,-4.0303,-4.0352,-4.0358,-4.0364,-4.0452,-4.0375,-4.0379,-4.0382,-4.0571,-4.0575,-4.0578,0,0,0,0,0,0,-4.0212,-4.0223,-4.0313,-4.027,-4.028,-4.0287,-4.0313,-4.0313,-4.0329,-4.0338,-4.0339,-4.0322,-4.035,-4.0358,-4.0416,-4.0453,-4.0381,-4.0385,-4.0568,-4.0572,-4.0576,-4.0629,0,0,0,0,0,0,-4.0208,-4.0222,-4.025,-4.0271,-4.0283,-4.0364,-4.0316,-4.0316,-4.0336,-4.0331,-4.0353,-4.0354,-4.0349,-4.041,-4.042,-4.0457,-4.0388,-4.0565,-4.057,-4.0575,-4.0624,-4.0634,-4.0643,0,0,0,0,0,-4.0204,-4.0263,-4.0252,-4.0263,-4.0318,-4.0366,-4.0373,-4.0367,-4.0339,-4.0368,-4.0374,-4.0353,-4.0448,-4.0416,-4.0427,-4.0466,-4.0562,-4.0569,-4.0574,-4.0619,-4.0632,-4.0643,0,0,0,0,0,0,-4.0245,-4.0265,-4.0253,-4.0321,-4.0342,-4.036,-4.0395,-4.0381,-4.041,-4.0404,-4.0395,-4.04,-4.046,-4.047,-4.0433,-4.054,-4.0501,-4.0509,-4.0531,-4.0543,-4.0553,-4.0548,-4.0391,0,0,0,0,0,-4.0263,-4.03,-4.0316,-4.0373,-4.0385,-4.0389,-4.0409,-4.0403,-4.0425,-4.0433,-4.0444,-4.0465,-4.05,-4.0523,-4.0555,-4.0626,-4.063,-4.0659,-4.0669,-4.0677,-4.0683,-4.0721,-4.0734,-4.0597,-4.0597,-4.0597,0,0,-4.0298,-4.0313,-4.0337,-4.0382,-4.0398,-4.0437,-4.0396,-4.0439,-4.0467,-4.0439,-4.0494,-4.0503,-4.0527,-4.0591,-4.062,-4.0601,-4.0722,-4.0684,-4.0691,-4.0693,-4.0729,-4.0742,-4.0753,-4.0602,-4.0601,-4.06,0,0,-4.0381,-4.0397,-4.0447,-4.0465,-4.049,-4.0493,-4.0505,-4.0526,-4.0531,-4.0586,-4.0566,-4.0601,-4.0661,-4.0678,-4.0695,-4.0789,-4.077,-4.08,-4.0849,-4.0886,-4.0897,-4.0906,-4.0938,-4.095,-4.0807,-4.0807,-4.0807,0,-4.0421,-4.0479,-4.0474,-4.0519,-4.0539,-4.0518,-4.0568,-4.0585,-4.062,-4.0634,-4.0612,-4.0688,-4.0702,-4.0771,-4.0794,-4.0809,-4.0822,-4.0795,-4.0896,-4.0906,-4.0914,-4.0945,-4.0957,-4.081,-4.081,-4.081,-4.0809,0,-4.0526,-4.0567,-4.0605,-4.064,-4.0665,-4.0712,-4.0714,-4.074,-4.0733,-4.0738,-4.0795,-4.0812,-4.0848,-4.0864,-4.0857,-4.0932,-4.0919,-4.0898,-4.0857,-4.0931,-4.0959,-4.0971,-4.0815,-4.0814,-4.0813,-4.0812,0,0,-4.0633,-4.0667,-4.0681,-4.0697,-4.0725,-4.0756,-4.0803,-4.0839,-4.0861,-4.0887,-4.0925,-4.0978,-4.0959,-4.0978,-4.0973,-4.1007,-4.1079,-4.0981,-4.0981,-4.0996,-4.1161,-4.1176,-4.1189,-4.1068,-4.107,-4.1072,-4.1159,0,-4.0716,-4.0798,-4.0796,-4.0872,-4.091,-4.0892,-4.0933,-4.0954,-4.0961,-4.0994,-4.1002,-4.1039,-4.1011,-4.1022,-4.1055,-4.1063,-4.1111,-4.1057,-4.1102,-4.1104,-4.1094,-4.1204,-4.1219,-4.13,-4.117,-4.1172,-4.1173,0,-4.0823,-4.0854,-4.0933,-4.0957,-4.0973,-4.101,-4.1043,-4.1075,-4.11,-4.1103,-4.1126,-4.1117,-4.1164,-4.1126,-4.1191,-4.1154,-4.1173,-4.1181,-4.1184,-4.1185,-4.1141,-4.1206,-4.1325,-4.1337,-4.1191,-4.119,-4.1188,0,-4.0891,-4.0952,-4.1008,-4.1022,-4.1052,-4.1078,-4.1091,-4.1114,-4.1136,-4.1166,-4.1181,-4.1216,-4.1234,-4.1261,-4.1262,-4.1234,-4.1327,-4.1289,-4.133,-4.133,-4.1347,-4.1345,-4.1468,-4.1364,-4.1364,-4.1364,-4.1364,0,-4.0982,-4.1031,-4.1038,-4.1072,-4.1127,-4.1126,-4.118,-4.1191,-4.1212,-4.1247,-4.1235,-4.1269,-4.1268,-4.1303,-4.1304,-4.1357,-4.1366,-4.1369,-4.1368,-4.1368,-4.1368,-4.1378,-4.1371,-4.1367,-4.1366,-4.1366,-4.1365,0,-4.1065,-4.1072,-4.1131,-4.1156,-4.1163,-4.1202,-4.1223,-4.1255,-4.1262,-4.1308,-4.1318,-4.1329,-4.1369,-4.1373,-4.142,-4.142,-4.1484,-4.1479,-4.1476,-4.1474,-4.1513,-4.1509,-4.1645,-4.1662,-4.155,-4.1551,-4.1552,0,-4.1121,-4.1158,-4.1188,-4.1211,-4.1226,-4.1264,-4.1288,-4.1289,-4.1314,-4.1346,-4.1375,-4.1414,-4.1445,-4.151,-4.1521,-4.1557,-4.1551,-4.1596,-4.1556,-4.1555,-4.1549,-4.1545,-4.1549,-4.1603,-4.1604,-4.1605,-4.1606,0,-4.1219,-4.1222,-4.1256,-4.1293,-4.1321,-4.1349,-4.1376,-4.1396,-4.1401,-4.1429,-4.1471,-4.1495,-4.1544,-4.1582,-4.1618,-4.1632,-4.1619,-4.1619,-4.163,-4.1629,-4.1625,-4.1626,-4.1494,-4.1615,-4.1614,-4.1614,-4.1613,-4.1613,-4.1289,-4.1322,-4.1348,-4.1387,-4.1408,-4.1433,-4.1465,-4.1477,-4.1512,-4.1552,-4.1551,-4.1596,-4.1622,-4.1669,-4.1686,-4.1721,-4.1705,-4.1722,-4.1725,-4.1729,-4.1732,-4.1623,-4.1728,-4.1727,-4.1727,-4.1727,-4.1727,0,-4.1385,-4.1402,-4.1438,-4.1476,-4.1507,-4.1496,-4.1526,-4.1552,-4.1592,-4.1617,-4.1649,-4.1697,-4.1735,-4.1752,-4.1789,-4.1814,-4.181,-4.1824,-4.182,-4.1824,-4.1744,-4.173,-4.1827,-4.1827,-4.1827,-4.1827,-4.1827,-4.1827,-4.1438,-4.1493,-4.1499,-4.1564,-4.158,-4.1625,-4.1643,-4.1667,-4.1687,-4.1741,-4.1773,-4.1784,-4.1806,-4.1846,-4.188,-4.1884,-4.1897,-4.1914,-4.1915,-4.1839,-4.1829,-4.1819,-4.1806,-4.1917,-4.1917,-4.1991,-4.1992,-4.1992]},{"header":{"parameterUnit":"m.s-1","parameterCategory":1,"la1":30.2991,"la2":30.254,"lo1":-89.0895,"lo2":-89.0444,"dy":0.0017,"dx":0.0017,"nx":28,"ny":28,"refTime":"2024-03-13T09:00:00:Z","depth":0,"parameterNumber":3,"parameterNumberName":"V-component_of_WINDS"},"data":[0,0,0,0,0,0,0,0,0,0,0,0,0,0,0,0,0,0,0,0,0,0,0,0,0,0,0,0,0,0,0,0,0,0,0,0,0,0,0,0,0,0,0,0,0,0,0,0,0,0,0,0,0,0,0,0,0,0,2.5327,2.5328,0,2.5405,2.5406,2.5407,2.5517,2.5519,2.5521,2.5523,2.5597,2.5597,2.5597,0,0,0,0,0,0,0,0,0,0,0,0,0,2.5269,2.5269,2.5327,2.5328,2.5329,2.5405,2.5406,2.5407,2.5517,2.5519,2.5522,2.5524,2.5597,2.5597,2.5597,0,0,0,0,0,0,0,0,0,0,0,0,0,2.5315,2.5269,2.5326,2.5393,2.54,2.5405,2.5406,2.5407,2.5517,2.5519,2.5522,2.5525,2.5597,2.5597,2.5597,2.5542,0,0,2.5598,2.5598,0,0,0,0,0,0,0,0,2.5312,2.5317,2.5382,2.5388,2.5396,2.5455,2.5413,2.5452,2.5516,2.5472,2.5523,2.5526,2.5547,2.5551,2.556,2.5545,2.5549,2.5598,2.5599,2.5599,2.5599,0,0,0,0,0,0,0,2.5309,2.5314,2.5358,2.5383,2.5391,2.5418,2.5427,2.5421,2.5492,2.5476,2.5484,2.5492,2.5551,2.5559,2.5562,2.555,2.5598,2.5599,2.5599,2.5599,2.5497,2.5494,0,0,0,0,0,0,2.5296,2.5311,2.5355,2.536,2.536,2.5416,2.5427,2.5433,2.5493,2.5505,2.549,2.5497,2.5557,2.5562,2.5565,2.5506,2.5599,2.5599,2.5599,2.5499,2.5496,2.5493,0,0,0,0,0,0,2.5295,2.5299,2.5352,2.5338,2.5346,2.5414,2.542,2.5433,2.5441,2.5503,2.5516,2.5485,2.556,2.5565,2.5548,2.551,2.5599,2.5599,2.5503,2.5498,2.5494,2.5386,0,0,0,0,0,0,2.5293,2.5298,2.5278,2.5336,2.5347,2.5334,2.5417,2.5432,2.5442,2.5452,2.5502,2.5513,2.5562,2.5547,2.5548,2.5512,2.56,2.5507,2.5501,2.5496,2.5394,2.5379,2.5366,0,0,0,0,0,2.529,2.5243,2.5277,2.5281,2.5324,2.5332,2.5337,2.5397,2.5438,2.5419,2.5459,2.5511,2.5514,2.5544,2.5547,2.551,2.5509,2.5502,2.5496,2.54,2.5382,2.5367,0,0,0,0,0,0,2.5176,2.5252,2.529,2.526,2.5289,2.535,2.5327,2.5375,2.5391,2.54,2.5471,2.5482,2.5456,2.5482,2.5514,2.5461,2.552,2.5513,2.5446,2.5429,2.5416,2.541,2.56,0,0,0,0,0,2.5147,2.5149,2.5215,2.5182,2.5195,2.5258,2.5264,2.5308,2.5339,2.5351,2.5391,2.5418,2.5426,2.5429,2.5439,2.5398,2.5411,2.5374,2.536,2.5349,2.5343,2.5325,2.531,2.5471,2.5472,2.5472,0,0,2.5088,2.513,2.5126,2.516,2.5188,2.5187,2.5268,2.5263,2.5263,2.535,2.5338,2.5367,2.5403,2.5374,2.5364,2.5395,2.5301,2.5341,2.5331,2.5331,2.5317,2.5301,2.5288,2.5467,2.5468,2.5469,0,0,2.498,2.5011,2.4989,2.5016,2.5058,2.5101,2.5095,2.515,2.5174,2.5163,2.523,2.523,2.524,2.5264,2.5277,2.5181,2.523,2.5182,2.511,2.5093,2.508,2.5069,2.5036,2.5023,2.5175,2.5175,2.5175,0,2.4901,2.4904,2.4971,2.4964,2.4977,2.5059,2.5037,2.5059,2.51,2.5107,2.5142,2.5159,2.5188,2.5168,2.5145,2.5152,2.5148,2.5176,2.5077,2.5066,2.5057,2.5026,2.5014,2.5169,2.517,2.517,2.5171,0,2.4805,2.4807,2.4783,2.4825,2.4836,2.482,2.4884,2.4887,2.493,2.4969,2.4958,2.4997,2.5017,2.5015,2.5056,2.5001,2.5019,2.5064,2.5124,2.5035,2.5007,2.4996,2.516,2.5163,2.5164,2.5166,0,0,2.4626,2.4708,2.4698,2.4719,2.4772,2.4774,2.4762,2.4785,2.4787,2.4813,2.4805,2.4814,2.4857,2.4872,2.4916,2.49,2.4824,2.4947,2.4949,2.4924,2.4767,2.4734,2.4719,2.4857,2.4855,2.4853,2.4765,0,2.453,2.4517,2.4578,2.4549,2.4552,2.4631,2.4621,2.4652,2.4689,2.4696,2.4735,2.4741,2.4797,2.4807,2.4794,2.4835,2.4793,2.4842,2.485,2.4849,2.484,2.4705,2.4669,2.4583,2.4754,2.4752,2.4751,0,2.4415,2.4439,2.4411,2.4468,2.4471,2.4462,2.4489,2.4494,2.4531,2.4559,2.4577,2.4629,2.4622,2.468,2.4671,2.4703,2.471,2.473,2.4729,2.4732,2.4795,2.4705,2.4557,2.4545,2.4734,2.4736,2.4737,0,2.4289,2.4313,2.4301,2.4316,2.4382,2.4374,2.44,2.4441,2.4451,2.4474,2.4482,2.4502,2.4513,2.4527,2.4584,2.462,2.4569,2.463,2.4591,2.459,2.4577,2.4577,2.4429,2.4579,2.458,2.458,2.458,0,2.4176,2.4155,2.4246,2.4238,2.4218,2.4288,2.4266,2.4301,2.4336,2.4336,2.4404,2.4402,2.4476,2.4482,2.4526,2.4513,2.4516,2.4539,2.4551,2.4533,2.453,2.4539,2.4546,2.4577,2.4577,2.4578,2.4578,0,2.4032,2.4091,2.4083,2.4147,2.4163,2.4145,2.42,2.4195,2.4237,2.4236,2.4239,2.4304,2.4315,2.4373,2.4396,2.4426,2.4398,2.4421,2.4386,2.4394,2.4352,2.4356,2.4205,2.4189,2.4348,2.4346,2.4345,0,2.3956,2.3943,2.4007,2.4013,2.4037,2.4045,2.4057,2.4126,2.4135,2.4178,2.4168,2.4185,2.4202,2.4216,2.4264,2.4283,2.4308,2.4254,2.4311,2.4295,2.4309,2.4309,2.4309,2.4242,2.4239,2.4238,2.4236,0,2.3815,2.3846,2.3862,2.3888,2.3901,2.3925,2.3952,2.3953,2.4029,2.4036,2.405,2.4063,2.4089,2.4105,2.4133,2.4159,2.421,2.4218,2.4211,2.4193,2.4174,2.4185,2.4354,2.4221,2.4223,2.4224,2.4225,2.4225,2.3704,2.3697,2.3742,2.3757,2.3786,2.3811,2.381,2.3853,2.3867,2.3895,2.3934,2.3942,2.3981,2.4024,2.4047,2.4054,2.4083,2.4071,2.4068,2.4064,2.4056,2.4172,2.4059,2.4059,2.406,2.406,2.4061,0,2.3568,2.3601,2.3615,2.3653,2.3666,2.3715,2.3749,2.3756,2.3763,2.3796,2.3813,2.3829,2.3846,2.3896,2.3918,2.3914,2.3938,2.3917,2.3919,2.3924,2.4028,2.4034,2.3898,2.3898,2.3898,2.3898,2.3898,2.3898,2.3499,2.3491,2.3527,2.3534,2.3567,2.3578,2.3593,2.3616,2.3644,2.3659,2.3675,2.3709,2.3749,2.3774,2.3792,2.3806,2.3811,2.3783,2.3805,2.3901,2.3917,2.3932,2.3937,2.3783,2.3783,2.3701,2.37,2.37]}]]